Miscellaneous Local Product
Issued by NWS Hastings, NE

Home | Current Version | Previous Version | Graphics & Text | Print | Product List | Glossary On
Versions: 1 2 3 4 5 6 7 8 9 10 11 12 13 14 15 16 17 18 19 20 21 22 23 24 25 26 27 28 29 30 31 32 33 34 35 36 37 38 39 40 41 42 43 44 45 46 47 48 49 50
000
AXUS43 KGID 272302
MISGRI

GID CWA HOURLY WEATHER ROUNDUP
NATIONAL WEATHER SERVICE HASTINGS NE
600 PM CDT SAT AUG 27 2016

NOTE: "FAIR" INDICATES FEW OR NO CLOUDS BELOW 12,000 FEET WITH NO
SIGNIFICANT WEATHER AND/OR OBSTRUCTIONS TO VISIBILITY.

...SOUTH CENTRAL NEBRASKA...

CITY           SKY/WX    TMP DP  RH WIND       PRES   REMARKS
GRAND ISLAND   SUNNY     83  63  50 SE12      29.99S
HASTINGS       SUNNY     84  61  45 S10       30.00S
KEARNEY        SUNNY     82  63  51 S12       29.98S
ORD            SUNNY     84  60  44 S13G21    29.96S
YORK           SUNNY     82  64  54 S9        29.99F
AURORA         SUNNY     83  62  49 S10       29.99S
LEXINGTON      CLOUDY    83  63  51 SE14      29.99F
HOLDREGE       SUNNY     81  62  52 S10       30.00S
HEBRON         SUNNY     82  68  63 SE8       29.99S

...NEBRASKA PANHANDLE...

CITY           SKY/WX    TMP DP  RH WIND       PRES   REMARKS
CHADRON        SUNNY     87  38  17 S6G17     29.89F
ALLIANCE       SUNNY     82  48  30 S15       29.98S
SCOTTSBLUFF    SUNNY     84  52  33 E13       29.97S
SIDNEY         SUNNY     83  45  26 S17       30.03F

...WESTERN AND NORTH CENTRAL NEBRASKA...

CITY           SKY/WX    TMP DP  RH WIND       PRES   REMARKS
VALENTINE      SUNNY     85  53  33 S15G21    29.93S
AINSWORTH      MOSUNNY   83  60  46 S8        29.95R
ONEILL         SUNNY     85  58  39 S13       29.96S
BROKEN BOW     SUNNY     82  61  48 S18G25    29.98F
IMPERIAL       CLOUDY    79  58  48 S12       30.00S
NORTH PLATTE   SUNNY     85  60  42 S9        29.97F
MCCOOK         CLOUDY    83  63  50 SE9       29.98S

...EASTERN NEBRASKA...

CITY           SKY/WX    TMP DP  RH WIND       PRES   REMARKS
NORFOLK        SUNNY     81  61  50 S12       29.98S
SO SIOUX CITY  MOSUNNY   80  67  64 VRB3      29.97F
TEKAMAH        SUNNY     80  66  62 S7        29.97S
COLUMBUS       SUNNY     81  61  50 S8        29.98F
ALBION         SUNNY     80  62  54 S8        29.98S
OMAHA EPPLEY   MOSUNNY   83  65  54 S9        29.97F
OFFUTT AFB     SUNNY     82  66  59 SE8       29.97F
MILLARD        SUNNY     83  68  60 SE6       29.98S
LINCOLN        SUNNY     84  65  52 S9        29.99S
NEBRASKA CITY  SUNNY     82  64  55 SE3       30.00S
BEATRICE       SUNNY     83  66  57 S3        29.99S
FALLS CITY     MOSUNNY   83  70  64 SE3       29.98S

...NORTHERN KANSAS...

CITY           SKY/WX    TMP DP  RH WIND       PRES   REMARKS
GOODLAND       CLOUDY    78  59  51 S7        30.01S
HILL CITY      MOSUNNY   85  67  54 SE12      29.97F
NORTON         PTCLDY    82  57  42 SE14      29.98S
SMITH CENTER   MOSUNNY   82  64  54 SE10      29.99S
BELOIT         SUNNY     81  64  57 E9        29.97S
HAYS           MOSUNNY   88  63  42 S13       29.97S
RUSSELL        SUNNY     86  65  49 S13       29.96F
CONCORDIA      SUNNY     84  66  54 E8        29.98F
SALINA         PTSUNNY   87  69  54 SE5       29.96F HX  91
TOPEKA           N/A    N/A N/A N/A MISG      29.97F



USA.gov is the U.S. government's official web portal to all federal, state and local government web resources and services.